BFT035 EDDM-BIKF

Flight info

Callsign BFT035
Flight time 3h 23m
Altitude 38000
Route INPUD3Q INPUD Y102 UPALA M726 LASGA DCT KUMER DCT REXMI DCT KARLI DCT ALOTI DCT NALAN/M085F380 DCT 62N010W DCT ALDAN DCT ASRUN ASRUN4N
Aircraft A35K/H-SDE2E3GHIJ1J3J4J5LM1ORWXY/LB1D1

Departure

Time 2026-05-04 18:39
Airport Munich Airport (EDDM)

Arrival

Time 2026-05-04 22:02
Airport Keflavik International Airport (BIKF)
Time Latitude Longitude Altitude Speed Heading
2026-05-04 17:20 48.35234 11.78321 1480 ft 0 kts 95°
2026-05-04 18:06 48.35234 11.78317 1475 ft 3 kts 94°
2026-05-04 18:07 48.35231 11.78279 1475 ft 4 kts 72°
2026-05-04 18:07 48.35226 11.78247 1478 ft 4 kts 82°
2026-05-04 18:07 48.35218 11.78210 1478 ft 4 kts 49°
2026-05-04 18:07 48.35198 11.78190 1480 ft 4 kts
2026-05-04 18:08 48.35173 11.78191 1482 ft 4 kts 353°
2026-05-04 18:08 48.35146 11.78196 1475 ft 4 kts 353°
2026-05-04 18:08 48.35137 11.78198 1475 ft 0 kts 353°
2026-05-04 18:26 48.35150 11.78195 1475 ft 5 kts 353°
2026-05-04 18:26 48.35206 11.78186 1475 ft 11 kts 353°
2026-05-04 18:26 48.35295 11.78170 1485 ft 12 kts 353°
2026-05-04 18:27 48.35346 11.78066 1479 ft 16 kts 271°
2026-05-04 18:27 48.35337 11.77888 1489 ft 16 kts 264°
2026-05-04 18:27 48.35405 11.77773 1477 ft 18 kts 350°
2026-05-04 18:27 48.35543 11.77749 1486 ft 22 kts 353°
2026-05-04 18:28 48.35696 11.77723 1480 ft 23 kts 353°
2026-05-04 18:28 48.35848 11.77696 1491 ft 16 kts 353°
2026-05-04 18:28 48.35883 11.77690 1478 ft 0 kts 353°
2026-05-04 18:33 48.35909 11.77686 1484 ft 7 kts 353°
2026-05-04 18:33 48.35992 11.77671 1477 ft 14 kts 353°
2026-05-04 18:33 48.36077 11.77738 1477 ft 19 kts 73°
2026-05-04 18:34 48.36098 11.77966 1483 ft 24 kts 83°
2026-05-04 18:34 48.36118 11.78227 1491 ft 26 kts 83°
2026-05-04 18:34 48.36138 11.78492 1481 ft 26 kts 83°
2026-05-04 18:34 48.36159 11.78763 1482 ft 25 kts 83°
2026-05-04 18:35 48.36179 11.79024 1477 ft 25 kts 83°
2026-05-04 18:35 48.36199 11.79276 1491 ft 25 kts 83°
2026-05-04 18:35 48.36220 11.79550 1488 ft 24 kts 84°
2026-05-04 18:35 48.36238 11.79804 1479 ft 26 kts 83°
2026-05-04 18:36 48.36260 11.80080 1491 ft 24 kts 83°
2026-05-04 18:36 48.36280 11.80339 1477 ft 26 kts 83°
2026-05-04 18:36 48.36301 11.80608 1487 ft 26 kts 83°
2026-05-04 18:36 48.36322 11.80873 1486 ft 26 kts 83°
2026-05-04 18:37 48.36342 11.81143 1487 ft 26 kts 83°
2026-05-04 18:37 48.36362 11.81403 1487 ft 26 kts 83°
2026-05-04 18:37 48.36382 11.81666 1478 ft 24 kts 83°
2026-05-04 18:37 48.36394 11.81911 1478 ft 23 kts 100°
2026-05-04 18:38 48.36417 11.82118 1475 ft 16 kts 40°
2026-05-04 18:38 48.36522 11.82125 1482 ft 17 kts 353°
2026-05-04 18:38 48.36640 11.82048 1477 ft 20 kts 313°
2026-05-04 18:38 48.36654 11.81680 1483 ft 66 kts 264°
2026-05-04 18:39 48.36576 11.80652 1488 ft 130 kts 263°
2026-05-04 18:39 48.36452 11.79035 1650 ft 168 kts 263°
2026-05-04 18:39 48.36326 11.77341 2399 ft 164 kts 263°
2026-05-04 18:39 48.36204 11.75585 2976 ft 173 kts 264°
2026-05-04 18:40 48.36088 11.73763 3579 ft 176 kts 264°
2026-05-04 18:40 48.35967 11.71898 4028 ft 190 kts 264°
2026-05-04 18:40 48.35813 11.69796 4295 ft 214 kts 263°
2026-05-04 18:40 48.35988 11.67464 4562 ft 237 kts 292°
2026-05-04 18:41 48.36988 11.65476 5149 ft 246 kts 324°
2026-05-04 18:41 48.38619 11.64622 5727 ft 257 kts 355°
2026-05-04 18:41 48.40439 11.64460 6384 ft 268 kts 355°
2026-05-04 18:41 48.42319 11.64114 7118 ft 275 kts 350°
2026-05-04 18:42 48.44223 11.63568 7928 ft 282 kts 349°
2026-05-04 18:42 48.46163 11.62975 8826 ft 285 kts 348°
2026-05-04 18:42 48.48106 11.62377 9795 ft 285 kts 348°
2026-05-04 18:42 48.50053 11.61813 10748 ft 286 kts 349°
2026-05-04 18:43 48.52047 11.61256 11444 ft 296 kts 348°
2026-05-04 18:43 48.54098 11.60675 12234 ft 302 kts 348°
2026-05-04 18:43 48.56161 11.60046 13104 ft 304 kts 347°
2026-05-04 18:43 48.58202 11.59140 13869 ft 308 kts 338°
2026-05-04 18:44 48.60169 11.57782 14541 ft 316 kts 333°
2026-05-04 18:44 48.61539 11.56919 14796 ft 328 kts 338°
2026-05-04 18:44 48.64487 11.55160 15230 ft 353 kts 337°
2026-05-04 18:44 48.66833 11.53802 15538 ft 370 kts 341°
2026-05-04 18:45 48.69393 11.52831 15866 ft 387 kts 347°
2026-05-04 18:45 48.72086 11.52064 16263 ft 399 kts 349°
2026-05-04 18:45 48.74855 11.51415 16856 ft 406 kts 351°
2026-05-04 18:45 48.77670 11.50825 17505 ft 411 kts 351°
2026-05-04 18:46 48.80513 11.50253 18160 ft 415 kts 351°
2026-05-04 18:46 48.83389 11.49675 18791 ft 419 kts 351°
2026-05-04 18:46 48.86292 11.49081 19443 ft 423 kts 351°
2026-05-04 18:46 48.89222 11.48472 20093 ft 427 kts 351°
2026-05-04 18:47 48.92177 11.47849 20752 ft 431 kts 351°
2026-05-04 18:47 48.95158 11.47215 21384 ft 435 kts 351°
2026-05-04 18:47 48.98169 11.46570 22011 ft 439 kts 351°
2026-05-04 18:47 49.01202 11.45918 22630 ft 443 kts 351°
2026-05-04 18:48 49.04267 11.45259 23225 ft 446 kts 351°
2026-05-04 18:48 49.07353 11.44594 23821 ft 450 kts 351°
2026-05-04 18:48 49.10467 11.43923 24387 ft 454 kts 351°
2026-05-04 18:48 49.13608 11.43246 24807 ft 457 kts 351°
2026-05-04 18:49 49.16755 11.42568 24929 ft 457 kts 351°
2026-05-04 18:49 49.19910 11.41887 24936 ft 458 kts 351°
2026-05-04 18:49 49.23067 11.41205 24934 ft 459 kts 351°
2026-05-04 18:49 49.26230 11.40520 24937 ft 459 kts 351°
2026-05-04 18:50 49.29351 11.39843 24943 ft 459 kts 351°
2026-05-04 18:50 49.32562 11.39147 24942 ft 459 kts 351°
2026-05-04 18:50 49.35688 11.38467 25152 ft 462 kts 351°
2026-05-04 18:50 49.38880 11.37772 25703 ft 464 kts 351°
2026-05-04 18:51 49.42084 11.37073 26301 ft 466 kts 351°
2026-05-04 18:51 49.45307 11.36369 26852 ft 469 kts 351°
2026-05-04 18:51 49.48545 11.35661 27358 ft 473 kts 351°
2026-05-04 18:51 49.51820 11.34944 27873 ft 476 kts 351°
2026-05-04 18:52 49.55098 11.34221 28382 ft 479 kts 350°
2026-05-04 18:52 49.58402 11.33496 28851 ft 482 kts 351°
2026-05-04 18:52 49.61742 11.32765 29312 ft 485 kts 351°
2026-05-04 18:52 49.65091 11.32029 29764 ft 488 kts 351°
2026-05-04 18:53 49.68462 11.31287 30164 ft 490 kts 351°
2026-05-04 18:53 49.71847 11.30540 30561 ft 493 kts 351°
2026-05-04 18:53 49.75252 11.29788 30929 ft 496 kts 350°
2026-05-04 18:53 49.78674 11.29031 31353 ft 496 kts 350°
2026-05-04 18:54 49.82086 11.28278 31879 ft 494 kts 350°
2026-05-04 18:54 49.85487 11.27525 32370 ft 493 kts 350°
2026-05-04 18:54 49.88879 11.26771 32815 ft 492 kts 350°
2026-05-04 18:54 49.92261 11.26017 33247 ft 491 kts 350°
2026-05-04 18:55 49.95643 11.25261 33670 ft 490 kts 350°
2026-05-04 18:55 50.02379 11.23755 34443 ft 488 kts 350°
2026-05-04 18:55 50.05738 11.23025 34836 ft 488 kts 351°
2026-05-04 18:56 50.09127 11.22715 35193 ft 488 kts 357°
2026-05-04 18:56 50.12521 11.22634 35540 ft 488 kts 358°
2026-05-04 18:56 50.15916 11.22615 35841 ft 487 kts 358°
2026-05-04 18:56 50.19106 11.22629 36117 ft 487 kts 358°
2026-05-04 18:57 50.22500 11.22663 36393 ft 488 kts 358°
2026-05-04 18:57 50.25894 11.22702 36648 ft 488 kts 359°
2026-05-04 18:57 50.29290 11.22739 36972 ft 486 kts 358°
2026-05-04 18:57 50.31518 11.22760 37227 ft 484 kts 358°
2026-05-04 18:58 50.34857 11.22530 37587 ft 479 kts 351°
2026-05-04 18:58 50.38123 11.21611 37864 ft 475 kts 343°
2026-05-04 18:58 50.41319 11.20248 37968 ft 476 kts 342°
2026-05-04 18:58 50.44494 11.18757 37958 ft 476 kts 341°
2026-05-04 18:59 50.50817 11.15609 37960 ft 477 kts 340°
2026-05-04 18:59 50.57144 11.12427 37979 ft 477 kts 340°
2026-05-04 19:00 50.63480 11.09266 37982 ft 478 kts 340°
2026-05-04 19:00 50.69822 11.06107 37979 ft 478 kts 340°
2026-05-04 19:01 50.76163 11.02946 37989 ft 478 kts 340°
2026-05-04 19:01 50.82503 10.99775 37990 ft 478 kts 340°
2026-05-04 19:02 50.88841 10.96594 37990 ft 478 kts 340°
2026-05-04 19:02 50.95172 10.93409 37990 ft 478 kts 340°
2026-05-04 19:03 51.01490 10.90221 37990 ft 478 kts 340°
2026-05-04 19:03 51.07834 10.87010 37989 ft 478 kts 340°
2026-05-04 19:04 51.14177 10.83793 37989 ft 479 kts 340°
2026-05-04 19:04 51.20476 10.80588 37989 ft 478 kts 340°
2026-05-04 19:05 51.26810 10.77351 37990 ft 478 kts 340°
2026-05-04 19:05 51.33143 10.74108 37979 ft 478 kts 340°
2026-05-04 19:06 51.39474 10.70862 37979 ft 478 kts 340°
2026-05-04 19:06 51.45797 10.67608 37958 ft 478 kts 340°
2026-05-04 19:07 51.52110 10.64327 37971 ft 477 kts 338°
2026-05-04 19:07 51.58192 10.60107 37967 ft 476 kts 333°
2026-05-04 19:08 51.64177 10.55572 37977 ft 476 kts 332°
2026-05-04 19:08 51.70147 10.50968 37982 ft 476 kts 332°
2026-05-04 19:09 51.76119 10.46355 37980 ft 476 kts 332°
2026-05-04 19:09 51.82085 10.41744 37977 ft 476 kts 332°
2026-05-04 19:10 51.88059 10.37119 37974 ft 476 kts 332°
2026-05-04 19:10 51.94027 10.32488 37955 ft 475 kts 332°
2026-05-04 19:11 51.99990 10.27844 37955 ft 476 kts 332°
2026-05-04 19:11 52.05954 10.23186 37955 ft 476 kts 332°
2026-05-04 19:12 52.14892 10.16180 37954 ft 476 kts 332°
2026-05-04 19:13 52.20850 10.11491 37960 ft 476 kts 332°
2026-05-04 19:13 52.26807 10.06788 37966 ft 475 kts 332°
2026-05-04 19:14 52.32758 10.02079 37957 ft 476 kts 332°
2026-05-04 19:14 52.38715 9.97350 37962 ft 476 kts 332°
2026-05-04 19:15 52.44671 9.92608 37969 ft 476 kts 332°
2026-05-04 19:15 52.50621 9.87856 37970 ft 475 kts 332°
2026-05-04 19:16 52.56564 9.83094 37962 ft 476 kts 331°
2026-05-04 19:16 52.62516 9.78310 37958 ft 476 kts 331°
2026-05-04 19:17 52.68464 9.73519 37962 ft 476 kts 331°
2026-05-04 19:17 52.74397 9.68702 37963 ft 476 kts 330°
2026-05-04 19:18 52.80212 9.63654 37977 ft 475 kts 329°
2026-05-04 19:18 52.86034 9.58478 37976 ft 475 kts 329°
2026-05-04 19:19 52.91905 9.53287 37958 ft 475 kts 329°
2026-05-04 19:19 52.97745 9.48148 37982 ft 475 kts 329°
2026-05-04 19:20 53.03587 9.43000 37980 ft 475 kts 329°
2026-05-04 19:20 53.09385 9.37871 37987 ft 475 kts 329°
2026-05-04 19:21 53.15256 9.32666 37989 ft 475 kts 329°
2026-05-04 19:21 53.21050 9.27514 37989 ft 475 kts 329°
2026-05-04 19:22 53.26880 9.22309 38001 ft 475 kts 329°
2026-05-04 19:22 53.29794 9.19703 38185 ft 475 kts 329°
2026-05-04 19:22 53.32704 9.17097 38453 ft 473 kts 329°
2026-05-04 19:22 53.35600 9.14499 38663 ft 473 kts 329°
2026-05-04 19:23 53.38500 9.11893 38837 ft 473 kts 329°
2026-05-04 19:23 53.41405 9.09278 38986 ft 474 kts 329°
2026-05-04 19:23 53.44308 9.06661 39156 ft 473 kts 329°
2026-05-04 19:23 53.47209 9.04040 39261 ft 475 kts 330°
2026-05-04 19:24 53.50118 9.01406 39413 ft 475 kts 330°
2026-05-04 19:24 53.53030 8.98766 39580 ft 476 kts 329°
2026-05-04 19:24 53.55938 8.96126 39734 ft 476 kts 329°
2026-05-04 19:24 53.58853 8.93476 39870 ft 476 kts 330°
2026-05-04 19:25 53.61770 8.90820 39982 ft 477 kts 329°
2026-05-04 19:25 53.67643 8.85457 39986 ft 482 kts 330°
2026-05-04 19:26 53.73531 8.80071 39989 ft 481 kts 330°
2026-05-04 19:26 53.79410 8.74672 39991 ft 481 kts 329°
2026-05-04 19:27 53.85242 8.69295 39993 ft 481 kts 329°
2026-05-04 19:27 53.91121 8.63861 39997 ft 481 kts 329°
2026-05-04 19:28 53.96997 8.58414 39996 ft 481 kts 329°
2026-05-04 19:28 54.02866 8.52952 40001 ft 481 kts 329°
2026-05-04 19:29 54.08734 8.47472 39999 ft 481 kts 329°
2026-05-04 19:29 54.14559 8.42017 40000 ft 481 kts 329°
2026-05-04 19:30 54.20463 8.36470 39999 ft 481 kts 329°
2026-05-04 19:30 54.26326 8.30944 40003 ft 481 kts 329°
2026-05-04 19:31 54.32187 8.25400 40008 ft 481 kts 329°
2026-05-04 19:31 54.38001 8.19883 40008 ft 481 kts 329°
2026-05-04 19:32 54.43854 8.14311 40017 ft 481 kts 329°
2026-05-04 19:32 54.49706 8.08722 40017 ft 481 kts 329°
2026-05-04 19:33 54.55552 8.03120 40017 ft 481 kts 329°
2026-05-04 19:33 54.61397 7.97500 40018 ft 481 kts 329°
2026-05-04 19:34 54.67239 7.91865 40017 ft 481 kts 329°
2026-05-04 19:34 54.73079 7.86212 40018 ft 481 kts 329°
2026-05-04 19:35 54.78913 7.80547 40018 ft 481 kts 329°
2026-05-04 19:35 54.84744 7.74865 40017 ft 481 kts 329°
2026-05-04 19:36 54.90572 7.69168 40016 ft 481 kts 329°
2026-05-04 19:36 54.96398 7.63454 40017 ft 481 kts 329°
2026-05-04 19:37 55.02216 7.57727 40017 ft 481 kts 329°
2026-05-04 19:37 55.08035 7.51981 40017 ft 481 kts 329°
2026-05-04 19:38 55.13811 7.46257 40017 ft 480 kts 329°
2026-05-04 19:38 55.19622 7.40480 40018 ft 480 kts 328°
2026-05-04 19:39 55.25428 7.34689 40017 ft 480 kts 328°
2026-05-04 19:39 55.31228 7.28883 40020 ft 480 kts 328°
2026-05-04 19:40 55.37027 7.23059 40021 ft 480 kts 328°
2026-05-04 19:40 55.42821 7.17220 40026 ft 480 kts 328°
2026-05-04 19:41 55.48609 7.11360 40024 ft 480 kts 328°
2026-05-04 19:41 55.54390 7.05476 40017 ft 480 kts 328°
2026-05-04 19:42 55.60174 6.99576 40008 ft 480 kts 328°
2026-05-04 19:42 55.65954 6.93673 40009 ft 480 kts 328°
2026-05-04 19:43 55.71729 6.87760 40016 ft 479 kts 328°
2026-05-04 19:43 55.77499 6.81817 40018 ft 479 kts 328°
2026-05-04 19:44 55.83226 6.75900 40016 ft 479 kts 328°
2026-05-04 19:44 55.88985 6.69933 40018 ft 479 kts 328°
2026-05-04 19:45 55.94744 6.63948 40017 ft 479 kts 328°
2026-05-04 19:45 56.00497 6.57947 40017 ft 479 kts 328°
2026-05-04 19:46 56.06246 6.51929 40017 ft 478 kts 328°
2026-05-04 19:46 56.11015 6.46921 40016 ft 478 kts 328°
2026-05-04 19:47 56.16748 6.40881 39998 ft 478 kts 328°
2026-05-04 19:47 56.22471 6.34830 39999 ft 478 kts 328°
2026-05-04 19:48 56.28210 6.28743 40001 ft 478 kts 327°
2026-05-04 19:48 56.33936 6.22649 39997 ft 478 kts 327°
2026-05-04 19:49 56.39654 6.16539 39991 ft 478 kts 327°
2026-05-04 19:49 56.45375 6.10404 39990 ft 478 kts 327°
2026-05-04 19:50 56.51086 6.04259 39990 ft 478 kts 327°
2026-05-04 19:50 56.56799 5.98089 39992 ft 478 kts 327°
2026-05-04 19:51 56.62504 5.91908 39982 ft 478 kts 327°
2026-05-04 19:51 56.68205 5.85712 39982 ft 477 kts 327°
2026-05-04 19:52 56.73897 5.79502 39982 ft 477 kts 327°
2026-05-04 19:52 56.79589 5.73262 39981 ft 477 kts 327°
2026-05-04 19:53 56.85276 5.67010 39964 ft 477 kts 327°
2026-05-04 19:53 56.90954 5.60748 39979 ft 477 kts 327°
2026-05-04 19:54 56.96629 5.54460 39996 ft 477 kts 327°
2026-05-04 19:54 57.01782 5.46965 40001 ft 472 kts 313°
2026-05-04 19:55 57.06318 5.38229 39996 ft 472 kts 310°
2026-05-04 19:55 57.10703 5.29250 39995 ft 472 kts 310°
2026-05-04 19:56 57.15079 5.20248 39999 ft 472 kts 310°
2026-05-04 19:56 57.19471 5.11248 39999 ft 472 kts 310°
2026-05-04 19:57 57.23863 5.02251 39999 ft 472 kts 310°
2026-05-04 19:57 57.28248 4.93239 39998 ft 472 kts 310°
2026-05-04 19:58 57.32624 4.84209 39999 ft 472 kts 310°
2026-05-04 19:58 57.36970 4.75211 39997 ft 471 kts 310°
2026-05-04 19:59 57.41331 4.66139 39998 ft 471 kts 310°
2026-05-04 19:59 57.45689 4.57038 39997 ft 471 kts 310°
2026-05-04 20:00 57.50036 4.47924 39998 ft 471 kts 309°
2026-05-04 20:00 57.54375 4.38793 39999 ft 471 kts 309°
2026-05-04 20:01 57.58707 4.29640 39997 ft 471 kts 309°
2026-05-04 20:01 57.63025 4.20472 39997 ft 470 kts 309°
2026-05-04 20:02 57.67340 4.11294 39998 ft 470 kts 309°
2026-05-04 20:02 57.71647 4.02092 39998 ft 470 kts 309°
2026-05-04 20:03 57.75954 3.92877 40000 ft 470 kts 309°
2026-05-04 20:03 57.80253 3.83636 39999 ft 470 kts 309°
2026-05-04 20:04 57.84539 3.74375 39997 ft 470 kts 309°
2026-05-04 20:04 57.88816 3.65086 39997 ft 470 kts 309°
2026-05-04 20:05 57.93020 3.55689 39998 ft 469 kts 306°
2026-05-04 20:05 57.96853 3.45758 39999 ft 469 kts 303°
2026-05-04 20:06 58.00615 3.35714 40001 ft 469 kts 304°
2026-05-04 20:06 58.04422 3.25728 39989 ft 469 kts 304°
2026-05-04 20:07 58.08259 3.15764 39991 ft 469 kts 304°
2026-05-04 20:07 58.12095 3.05787 39989 ft 469 kts 304°
2026-05-04 20:08 58.15922 2.95784 39993 ft 469 kts 304°
2026-05-04 20:08 58.19738 2.85758 39991 ft 469 kts 304°
2026-05-04 20:09 58.23529 2.75695 39990 ft 469 kts 303°
2026-05-04 20:09 58.27301 2.65584 39990 ft 469 kts 303°
2026-05-04 20:10 58.31079 2.55479 39991 ft 469 kts 303°
2026-05-04 20:10 58.34835 2.45441 39990 ft 469 kts 303°
2026-05-04 20:11 58.38614 2.35316 39991 ft 469 kts 303°
2026-05-04 20:11 58.42380 2.25162 39990 ft 469 kts 303°
2026-05-04 20:12 58.46121 2.15014 39990 ft 469 kts 303°
2026-05-04 20:12 58.49867 2.04814 39993 ft 469 kts 303°
2026-05-04 20:13 58.53605 1.94601 39992 ft 469 kts 303°
2026-05-04 20:13 58.57338 1.84368 39993 ft 469 kts 303°
2026-05-04 20:14 58.61064 1.74115 39989 ft 469 kts 302°
2026-05-04 20:14 58.64787 1.63838 39989 ft 469 kts 303°
2026-05-04 20:15 58.68534 1.53564 39990 ft 469 kts 303°
2026-05-04 20:15 58.72264 1.43249 39990 ft 470 kts 303°
2026-05-04 20:16 58.75965 1.32905 39988 ft 469 kts 303°
2026-05-04 20:16 58.79657 1.22511 39984 ft 470 kts 302°
2026-05-04 20:17 58.83338 1.12100 39996 ft 470 kts 302°
2026-05-04 20:17 58.87012 1.01669 39999 ft 470 kts 302°
2026-05-04 20:18 58.90682 0.91210 39998 ft 470 kts 302°
2026-05-04 20:18 58.94344 0.80722 40000 ft 470 kts 302°
2026-05-04 20:19 58.97995 0.70223 39998 ft 470 kts 302°
2026-05-04 20:19 59.01642 0.59697 39999 ft 470 kts 302°
2026-05-04 20:20 59.05277 0.49147 40000 ft 470 kts 302°
2026-05-04 20:20 59.08905 0.38557 40000 ft 470 kts 302°
2026-05-04 20:21 59.12521 0.27961 40000 ft 470 kts 302°
2026-05-04 20:21 59.17939 0.12011 40007 ft 470 kts 302°
2026-05-04 20:22 59.21540 0.01352 40009 ft 470 kts 301°
2026-05-04 20:22 59.25131 -0.09332 40008 ft 470 kts 302°
2026-05-04 20:23 59.28712 -0.20033 40008 ft 470 kts 302°
2026-05-04 20:23 59.32257 -0.30675 40008 ft 470 kts 301°
2026-05-04 20:24 59.35822 -0.41426 40017 ft 470 kts 301°
2026-05-04 20:24 59.39375 -0.52190 40018 ft 470 kts 301°
2026-05-04 20:25 59.42922 -0.62986 40017 ft 470 kts 301°
2026-05-04 20:25 59.46461 -0.73806 40017 ft 471 kts 301°
2026-05-04 20:26 59.49989 -0.84646 40017 ft 471 kts 301°
2026-05-04 20:26 59.53510 -0.95509 40017 ft 470 kts 301°
2026-05-04 20:27 59.57022 -1.06400 40018 ft 470 kts 301°
2026-05-04 20:27 59.60523 -1.17309 40017 ft 471 kts 301°
2026-05-04 20:28 59.64020 -1.28252 40017 ft 471 kts 301°
2026-05-04 20:28 59.67507 -1.39215 40018 ft 471 kts 301°
2026-05-04 20:29 59.70982 -1.50194 40017 ft 471 kts 301°
2026-05-04 20:29 59.74450 -1.61203 40017 ft 471 kts 300°
2026-05-04 20:30 59.77911 -1.72241 40017 ft 471 kts 300°
2026-05-04 20:30 59.81363 -1.83306 40016 ft 471 kts 300°
2026-05-04 20:31 59.84809 -1.94394 40017 ft 471 kts 300°
2026-05-04 20:31 59.88242 -2.05508 40017 ft 471 kts 300°
2026-05-04 20:32 59.91087 -2.14754 40018 ft 471 kts 300°
2026-05-04 20:32 59.94507 -2.25900 40016 ft 471 kts 300°
2026-05-04 20:33 59.97911 -2.37074 40018 ft 471 kts 300°
2026-05-04 20:33 60.01305 -2.48265 40017 ft 471 kts 300°
2026-05-04 20:34 60.04693 -2.59484 40018 ft 472 kts 300°
2026-05-04 20:34 60.08076 -2.70734 40017 ft 472 kts 300°
2026-05-04 20:35 60.11449 -2.82003 40017 ft 472 kts 300°
2026-05-04 20:35 60.14811 -2.93312 40017 ft 472 kts 299°
2026-05-04 20:36 60.18164 -3.04642 40017 ft 472 kts 299°
2026-05-04 20:36 60.21514 -3.16000 40017 ft 472 kts 299°
2026-05-04 20:37 60.24850 -3.27381 40019 ft 472 kts 299°
2026-05-04 20:37 60.28176 -3.38778 40016 ft 472 kts 299°
2026-05-04 20:38 60.31491 -3.50201 40018 ft 472 kts 299°
2026-05-04 20:38 60.34798 -3.61649 40028 ft 472 kts 299°
2026-05-04 20:39 60.38097 -3.73119 40029 ft 472 kts 299°
2026-05-04 20:39 60.41385 -3.84618 40028 ft 473 kts 299°
2026-05-04 20:40 60.44664 -3.96148 40028 ft 472 kts 298°
2026-05-04 20:40 60.47931 -4.07691 40024 ft 472 kts 298°
2026-05-04 20:41 60.51188 -4.19258 40025 ft 472 kts 298°
2026-05-04 20:41 60.54434 -4.30840 40026 ft 472 kts 298°
2026-05-04 20:42 60.57648 -4.42366 40027 ft 472 kts 298°
2026-05-04 20:42 60.60874 -4.53990 40026 ft 472 kts 298°
2026-05-04 20:43 60.64091 -4.65644 40036 ft 472 kts 298°
2026-05-04 20:43 60.67299 -4.77326 40034 ft 472 kts 298°
2026-05-04 20:44 60.70498 -4.89037 40036 ft 472 kts 298°
2026-05-04 20:44 60.73685 -5.00764 40036 ft 472 kts 298°
2026-05-04 20:45 60.76864 -5.12521 40034 ft 472 kts 298°
2026-05-04 20:45 60.80029 -5.24290 40040 ft 472 kts 298°
2026-05-04 20:46 60.83187 -5.36098 40042 ft 472 kts 298°
2026-05-04 20:46 60.86336 -5.47932 40043 ft 472 kts 297°
2026-05-04 20:47 60.89471 -5.59772 40043 ft 472 kts 297°
2026-05-04 20:47 60.92596 -5.71641 40053 ft 472 kts 297°
2026-05-04 20:48 60.95712 -5.83537 40052 ft 472 kts 297°
2026-05-04 20:48 60.98818 -5.95459 40054 ft 472 kts 297°
2026-05-04 20:49 61.01938 -6.07357 40059 ft 472 kts 298°
2026-05-04 20:49 61.05162 -6.19168 40047 ft 472 kts 298°
2026-05-04 20:50 61.08389 -6.30983 40051 ft 472 kts 298°
2026-05-04 20:50 61.11586 -6.42824 40072 ft 472 kts 298°
2026-05-04 20:51 61.14766 -6.54714 40062 ft 472 kts 298°
2026-05-04 20:51 61.17930 -6.66621 40071 ft 472 kts 298°
2026-05-04 20:52 61.21085 -6.78554 40065 ft 472 kts 298°
2026-05-04 20:52 61.24233 -6.90517 40072 ft 472 kts 298°
2026-05-04 20:53 61.27366 -7.02492 40062 ft 472 kts 297°
2026-05-04 20:53 61.30489 -7.14491 40078 ft 472 kts 297°
2026-05-04 20:54 61.33603 -7.26519 40075 ft 472 kts 297°
2026-05-04 20:54 61.36705 -7.38566 40077 ft 472 kts 297°
2026-05-04 20:55 61.39802 -7.50662 40069 ft 472 kts 297°
2026-05-04 20:55 61.42884 -7.62776 40072 ft 473 kts 297°
2026-05-04 20:56 61.45964 -7.74934 40077 ft 473 kts 297°
2026-05-04 20:56 61.49030 -7.87115 40061 ft 473 kts 297°
2026-05-04 20:57 61.52083 -7.99306 40078 ft 472 kts 297°
2026-05-04 20:57 61.55125 -8.11500 40077 ft 472 kts 297°
2026-05-04 20:58 61.58158 -8.23729 40076 ft 473 kts 297°
2026-05-04 20:58 61.61182 -8.35993 40061 ft 473 kts 296°
2026-05-04 20:59 61.64192 -8.48282 40076 ft 472 kts 297°
2026-05-04 20:59 61.67170 -8.60484 40077 ft 472 kts 297°
2026-05-04 21:00 61.70153 -8.72790 40062 ft 472 kts 296°
2026-05-04 21:00 61.73128 -8.85115 40077 ft 472 kts 296°
2026-05-04 21:01 61.76097 -8.97487 40061 ft 472 kts 296°
2026-05-04 21:01 61.79045 -9.09867 40077 ft 472 kts 296°
2026-05-04 21:02 61.81988 -9.22280 40072 ft 472 kts 296°
2026-05-04 21:02 61.84916 -9.34710 40082 ft 471 kts 296°
2026-05-04 21:03 61.87826 -9.47159 40082 ft 472 kts 296°
2026-05-04 21:03 61.90733 -9.59644 40083 ft 472 kts 296°
2026-05-04 21:04 61.93631 -9.72169 40081 ft 473 kts 296°
2026-05-04 21:04 61.96504 -9.84715 40081 ft 472 kts 295°
2026-05-04 21:05 61.99350 -9.97297 40080 ft 472 kts 293°
2026-05-04 21:05 62.01545 -10.10470 40082 ft 472 kts 288°
2026-05-04 21:06 62.03523 -10.23825 40091 ft 472 kts 287°
2026-05-04 21:06 62.05448 -10.37209 40092 ft 472 kts 287°
2026-05-04 21:07 62.07367 -10.50601 40091 ft 472 kts 287°
2026-05-04 21:07 62.09280 -10.64015 40091 ft 472 kts 287°
2026-05-04 21:08 62.11180 -10.77436 40092 ft 472 kts 287°
2026-05-04 21:08 62.13069 -10.90896 40091 ft 473 kts 287°
2026-05-04 21:09 62.14741 -11.02867 40092 ft 472 kts 287°
2026-05-04 21:09 62.16608 -11.16349 40092 ft 473 kts 287°
2026-05-04 21:10 62.18460 -11.29836 40091 ft 472 kts 287°
2026-05-04 21:10 62.20299 -11.43327 40090 ft 472 kts 287°
2026-05-04 21:11 62.22126 -11.56866 40091 ft 473 kts 287°
2026-05-04 21:11 62.23941 -11.70404 40096 ft 473 kts 287°
2026-05-04 21:12 62.25747 -11.83965 40101 ft 472 kts 287°
2026-05-04 21:12 62.27536 -11.97529 40085 ft 472 kts 287°
2026-05-04 21:13 62.29307 -12.11120 40091 ft 472 kts 286°
2026-05-04 21:13 62.31063 -12.24712 40091 ft 472 kts 286°
2026-05-04 21:14 62.32809 -12.38336 40092 ft 473 kts 286°
2026-05-04 21:14 62.34545 -12.51961 40092 ft 472 kts 286°
2026-05-04 21:15 62.36266 -12.65618 40091 ft 472 kts 286°
2026-05-04 21:15 62.37969 -12.79269 40093 ft 472 kts 285°
2026-05-04 21:16 62.39660 -12.92931 40101 ft 472 kts 285°
2026-05-04 21:16 62.41057 -13.04308 40101 ft 473 kts 285°
2026-05-04 21:17 62.42725 -13.18037 40100 ft 473 kts 285°
2026-05-04 21:17 62.44380 -13.31784 40101 ft 473 kts 285°
2026-05-04 21:18 62.46288 -13.47770 40101 ft 473 kts 285°
2026-05-04 21:18 62.47651 -13.59302 40107 ft 473 kts 285°
2026-05-04 21:19 62.49267 -13.73076 40109 ft 472 kts 285°
2026-05-04 21:19 62.50854 -13.86764 40110 ft 472 kts 285°
2026-05-04 21:20 62.52440 -14.00555 40109 ft 472 kts 284°
2026-05-04 21:20 62.54011 -14.14360 40109 ft 472 kts 284°
2026-05-04 21:21 62.55570 -14.28157 40109 ft 472 kts 284°
2026-05-04 21:21 62.57115 -14.41983 40114 ft 472 kts 284°
2026-05-04 21:22 62.58645 -14.55832 40175 ft 472 kts 284°
2026-05-04 21:22 62.60162 -14.69682 40181 ft 472 kts 284°
2026-05-04 21:23 62.61663 -14.83541 40191 ft 472 kts 284°
2026-05-04 21:23 62.63155 -14.97438 40187 ft 472 kts 284°
2026-05-04 21:24 62.64632 -15.11345 40190 ft 472 kts 284°
2026-05-04 21:24 62.66096 -15.25257 40189 ft 472 kts 283°
2026-05-04 21:25 62.67541 -15.39186 40189 ft 472 kts 283°
2026-05-04 21:25 62.68977 -15.53122 40189 ft 471 kts 283°
2026-05-04 21:26 62.70395 -15.67055 40191 ft 471 kts 283°
2026-05-04 21:26 62.71791 -15.80910 40205 ft 471 kts 283°
2026-05-04 21:27 62.73181 -15.94870 40202 ft 471 kts 283°
2026-05-04 21:27 62.74558 -16.08842 40201 ft 471 kts 283°
2026-05-04 21:28 62.75929 -16.22907 40204 ft 471 kts 283°
2026-05-04 21:28 62.77278 -16.36904 40203 ft 471 kts 283°
2026-05-04 21:29 62.78612 -16.50902 40202 ft 471 kts 282°
2026-05-04 21:29 62.79932 -16.64915 40212 ft 471 kts 282°
2026-05-04 21:30 62.81239 -16.78948 40212 ft 471 kts 282°
2026-05-04 21:30 62.82531 -16.92985 40210 ft 471 kts 282°
2026-05-04 21:31 62.84435 -17.13980 40213 ft 471 kts 282°
2026-05-04 21:32 62.85692 -17.28044 40213 ft 470 kts 282°
2026-05-04 21:32 62.86934 -17.42104 40210 ft 470 kts 282°
2026-05-04 21:33 62.88162 -17.56185 40218 ft 470 kts 282°
2026-05-04 21:33 62.89376 -17.70271 40220 ft 471 kts 281°
2026-05-04 21:34 62.90577 -17.84383 40220 ft 471 kts 281°
2026-05-04 21:34 62.91173 -17.91452 40082 ft 471 kts 281°
2026-05-04 21:34 62.91764 -17.98506 39842 ft 470 kts 281°
2026-05-04 21:34 62.92349 -18.05551 39589 ft 468 kts 281°
2026-05-04 21:35 62.92929 -18.12573 39342 ft 467 kts 281°
2026-05-04 21:35 62.93505 -18.19582 39094 ft 466 kts 281°
2026-05-04 21:35 62.94078 -18.26593 38846 ft 465 kts 281°
2026-05-04 21:35 62.94645 -18.33579 38598 ft 464 kts 281°
2026-05-04 21:36 62.95207 -18.40552 38347 ft 463 kts 281°
2026-05-04 21:36 62.95763 -18.47507 38102 ft 462 kts 281°
2026-05-04 21:36 62.96315 -18.54447 37850 ft 461 kts 281°
2026-05-04 21:36 62.96863 -18.61377 37605 ft 460 kts 281°
2026-05-04 21:37 62.97411 -18.68288 37354 ft 458 kts 281°
2026-05-04 21:37 62.98274 -18.74991 37115 ft 455 kts 292°
2026-05-04 21:37 62.99726 -18.81148 36863 ft 453 kts 303°
2026-05-04 21:37 63.01508 -18.86857 36612 ft 452 kts 305°
2026-05-04 21:38 63.03318 -18.92411 36365 ft 452 kts 305°
2026-05-04 21:38 63.05183 -18.98112 36108 ft 454 kts 305°
2026-05-04 21:38 63.07013 -19.03712 35857 ft 457 kts 305°
2026-05-04 21:38 63.08870 -19.09408 35634 ft 458 kts 305°
2026-05-04 21:39 63.10728 -19.15121 35377 ft 457 kts 305°
2026-05-04 21:39 63.12576 -19.20816 34971 ft 454 kts 305°
2026-05-04 21:39 63.14411 -19.26484 34258 ft 453 kts 304°
2026-05-04 21:39 63.16237 -19.32144 33479 ft 452 kts 304°
2026-05-04 21:40 63.18061 -19.37809 32672 ft 451 kts 304°
2026-05-04 21:40 63.19877 -19.43462 31867 ft 451 kts 304°
2026-05-04 21:40 63.21689 -19.49115 31031 ft 450 kts 304°
2026-05-04 21:40 63.23499 -19.54780 30178 ft 450 kts 304°
2026-05-04 21:41 63.25304 -19.60445 29370 ft 448 kts 304°
2026-05-04 21:41 63.27091 -19.66062 28752 ft 443 kts 304°
2026-05-04 21:41 63.28853 -19.71617 28136 ft 437 kts 304°
2026-05-04 21:41 63.30593 -19.77117 27537 ft 432 kts 304°
2026-05-04 21:42 63.32307 -19.82546 26928 ft 426 kts 304°
2026-05-04 21:42 63.33998 -19.87917 26333 ft 421 kts 304°
2026-05-04 21:42 63.35666 -19.93226 25734 ft 416 kts 304°
2026-05-04 21:42 63.37315 -19.98484 25145 ft 411 kts 304°
2026-05-04 21:43 63.38937 -20.03670 24555 ft 405 kts 304°
2026-05-04 21:43 63.40535 -20.08794 23988 ft 400 kts 304°
2026-05-04 21:43 63.42109 -20.13853 23415 ft 394 kts 304°
2026-05-04 21:43 63.43661 -20.18848 22845 ft 389 kts 304°
2026-05-04 21:44 63.45190 -20.23782 22285 ft 384 kts 304°
2026-05-04 21:44 63.46699 -20.28662 21723 ft 379 kts 304°
2026-05-04 21:44 63.48166 -20.33422 21160 ft 375 kts 304°
2026-05-04 21:44 63.49638 -20.38202 20613 ft 372 kts 304°
2026-05-04 21:45 63.51101 -20.42958 20046 ft 370 kts 304°
2026-05-04 21:45 63.52553 -20.47696 19474 ft 368 kts 304°
2026-05-04 21:45 63.53991 -20.52405 18902 ft 363 kts 304°
2026-05-04 21:45 63.55333 -20.57169 18359 ft 360 kts 298°
2026-05-04 21:46 63.56275 -20.62355 17829 ft 359 kts 289°
2026-05-04 21:46 63.56965 -20.67720 17259 ft 357 kts 287°
2026-05-04 21:46 63.57612 -20.73066 16684 ft 355 kts 287°
2026-05-04 21:46 63.58257 -20.78407 16108 ft 353 kts 287°
2026-05-04 21:47 63.58901 -20.83718 15521 ft 352 kts 287°
2026-05-04 21:47 63.59538 -20.88997 14945 ft 349 kts 287°
2026-05-04 21:47 63.60173 -20.94250 14374 ft 348 kts 287°
2026-05-04 21:47 63.60805 -20.99488 13787 ft 346 kts 286°
2026-05-04 21:48 63.61429 -21.04690 13225 ft 344 kts 286°
2026-05-04 21:48 63.62046 -21.09862 12637 ft 342 kts 286°
2026-05-04 21:48 63.62661 -21.15016 12063 ft 340 kts 286°
2026-05-04 21:48 63.63273 -21.20136 11542 ft 336 kts 286°
2026-05-04 21:49 63.63862 -21.25086 11387 ft 319 kts 286°
2026-05-04 21:49 63.64417 -21.29794 11250 ft 303 kts 286°
2026-05-04 21:49 63.64942 -21.34268 11132 ft 289 kts 286°
2026-05-04 21:49 63.65443 -21.38531 10982 ft 275 kts 286°
2026-05-04 21:50 63.65920 -21.42594 10853 ft 262 kts 286°
2026-05-04 21:50 63.66376 -21.46496 10718 ft 254 kts 286°
2026-05-04 21:50 63.66825 -21.50332 10594 ft 253 kts 286°
2026-05-04 21:50 63.67271 -21.54176 10467 ft 253 kts 286°
2026-05-04 21:51 63.67715 -21.58022 10342 ft 254 kts 285°
2026-05-04 21:51 63.68150 -21.61918 10034 ft 264 kts 285°
2026-05-04 21:51 63.68600 -21.66000 9659 ft 271 kts 285°
2026-05-04 21:51 63.69105 -21.70134 9459 ft 274 kts 289°
2026-05-04 21:52 63.69670 -21.74230 9087 ft 273 kts 289°
2026-05-04 21:52 63.70212 -21.78336 8792 ft 274 kts 288°
2026-05-04 21:52 63.70738 -21.82461 8451 ft 273 kts 288°
2026-05-04 21:52 63.71239 -21.86585 8032 ft 271 kts 287°
2026-05-04 21:53 63.71719 -21.90689 7770 ft 271 kts 286°
2026-05-04 21:53 63.72189 -21.94813 7446 ft 272 kts 285°
2026-05-04 21:53 63.72633 -21.98936 7061 ft 268 kts 286°
2026-05-04 21:53 63.73088 -22.03015 6573 ft 268 kts 287°
2026-05-04 21:54 63.73573 -22.07073 6073 ft 267 kts 287°
2026-05-04 21:54 63.74019 -22.11051 5734 ft 262 kts 283°
2026-05-04 21:54 63.74386 -22.15078 5484 ft 261 kts 281°
2026-05-04 21:54 63.74721 -22.19108 5246 ft 261 kts 282°
2026-05-04 21:55 63.75103 -22.23113 4992 ft 260 kts 283°
2026-05-04 21:55 63.75524 -22.27075 4712 ft 259 kts 284°
2026-05-04 21:55 63.75959 -22.31010 4436 ft 258 kts 284°
2026-05-04 21:55 63.76381 -22.34883 4224 ft 248 kts 285°
2026-05-04 21:56 63.76825 -22.38556 4023 ft 238 kts 288°
2026-05-04 21:56 63.77368 -22.42053 3831 ft 236 kts 291°
2026-05-04 21:56 63.77948 -22.45496 3612 ft 234 kts 292°
2026-05-04 21:56 63.78529 -22.48924 3387 ft 234 kts 291°
2026-05-04 21:57 63.79087 -22.52373 3113 ft 232 kts 290°
2026-05-04 21:57 63.79608 -22.55751 2930 ft 222 kts 290°
2026-05-04 21:57 63.80333 -22.58697 2763 ft 210 kts 316°
2026-05-04 21:57 63.81549 -22.60121 2774 ft 188 kts 344°
2026-05-04 21:58 63.82784 -22.60606 2718 ft 172 kts 357°
2026-05-04 21:58 63.83913 -22.60444 2621 ft 154 kts
2026-05-04 21:58 63.84939 -22.60445 2462 ft 142 kts 358°
2026-05-04 21:58 63.85916 -22.60469 2188 ft 139 kts
2026-05-04 21:59 63.86870 -22.60449 2004 ft 137 kts
2026-05-04 21:59 63.87832 -22.60447 1866 ft 139 kts
2026-05-04 21:59 63.88799 -22.60466 1671 ft 138 kts
2026-05-04 21:59 63.89757 -22.60477 1448 ft 137 kts
2026-05-04 22:00 63.90715 -22.60513 1267 ft 138 kts 359°
2026-05-04 22:00 63.91672 -22.60533 1081 ft 137 kts
2026-05-04 22:00 63.92621 -22.60517 903 ft 137 kts
2026-05-04 22:00 63.93567 -22.60555 742 ft 135 kts
2026-05-04 22:01 63.94510 -22.60540 574 ft 137 kts
2026-05-04 22:01 63.95464 -22.60538 393 ft 139 kts
2026-05-04 22:01 63.96424 -22.60542 200 ft 137 kts 360°
2026-05-04 22:01 63.97329 -22.60547 180 ft 122 kts
2026-05-04 22:02 63.98078 -22.60543 177 ft 92 kts
2026-05-04 22:02 63.98615 -22.60540 178 ft 62 kts 360°
2026-05-04 22:02 63.98939 -22.60540 179 ft 32 kts 360°
2026-05-04 22:02 63.99112 -22.60542 179 ft 14 kts 360°
2026-05-04 22:03 63.99170 -22.60698 174 ft 15 kts 274°
2026-05-04 22:03 63.99173 -22.60988 165 ft 20 kts 271°
2026-05-04 22:03 63.99173 -22.61293 159 ft 21 kts 270°
2026-05-04 22:03 63.99172 -22.61632 152 ft 24 kts 271°
2026-05-04 22:04 63.99172 -22.61987 146 ft 19 kts 270°
2026-05-04 22:04 63.99172 -22.62316 146 ft 22 kts 270°
2026-05-04 22:04 63.99173 -22.62591 146 ft 8 kts 275°
2026-05-04 22:04 63.99210 -22.62662 146 ft 11 kts 340°
2026-05-04 22:05 63.99304 -22.62743 146 ft 15 kts 355°
2026-05-04 22:05 63.99378 -22.62725 146 ft 9 kts
2026-05-04 22:05 63.99403 -22.62767 146 ft 2 kts 297°
2026-05-04 22:05 63.99406 -22.62823 146 ft 5 kts 272°
2026-05-04 22:06 63.99406 -22.62854 146 ft 2 kts 272°
2026-05-04 22:06 63.99407 -22.62883 146 ft 0 kts 272°